Waarnemingen

Advertentie
Mijn weer
Malung A, Zweden (2407): temperatuur & dauwpunt: 16.10.2017 06:00:00 - 22.10.2017 06:00:00 (CEST)Malung A, Zweden (2407): windsnelheid & windstoten: 16.10.2017 06:00:00 - 22.10.2017 06:00:00 (CEST)Malung A, Zweden (2407): windrichting: 16.10.2017 06:00:00 - 22.10.2017 06:00:00 (CEST)Malung A, Zweden (2407): luchtdruk: 16.10.2017 06:00:00 - 22.10.2017 06:00:00 (CEST)Malung A, Zweden (2407): zicht: 16.10.2017 06:00:00 - 22.10.2017 06:00:00 (CEST)Malung A, Zweden (2407): neerslag: 16.10.2017 06:00:00 - 22.10.2017 06:00:00 (CEST)
Datum & Tijd tt [°C] td [°C] ff [km/u] ff [kn] fx [km/u] fx [kn] dd ppp [hPa] vv [km] rr [mm]
22.10.2017 06:00:00 1,8 -0,3 1 1 9 5 ZZO 1018,9 50 0,0
22.10.2017 05:00:00 1,4 -0,5 5 3 8 5 Z 1019,4 50 0,0
22.10.2017 04:00:00 2,2 -0,4 3 2 8 4 ZO 1019,8 50 0,0
22.10.2017 03:00:00 2,3 0,0 5 3 9 5 Z 1020,3 50 0,0
22.10.2017 02:00:00 2,1 0,2 2 1 7 4 Z 1021,1 50 0,0
22.10.2017 01:00:00 2,0 0,5 5 3 8 4 O 1021,4 50 0,0
22.10.2017 00:00:00 2,4 0,6 4 2 12 6 ZO 1021,6 50 0,0
21.10.2017 23:00:00 3,6 1,2 8 5 14 8 OZO 1021,6 50 0,0
21.10.2017 22:00:00 4,0 1,5 7 4 12 7 ZO 1021,7 50 0,0
21.10.2017 21:00:00 3,9 1,6 6 3 12 7 ZO 1021,7 50 0,0
21.10.2017 20:00:00 3,9 1,4 3 2 10 5 ZO 1021,6 50 0,0
21.10.2017 19:00:00 4,4 1,1 6 4 14 7 O 1021,5 50 0,0
21.10.2017 18:00:00 4,8 0,9 7 4 13 7 O 1021,6 50 0,0
21.10.2017 17:00:00 5,1 0,8 6 4 11 6 O 1021,7 50 0,0
21.10.2017 16:00:00 5,5 0,9 5 3 17 9 O 1022,1 50 0,0
21.10.2017 15:00:00 5,1 0,7 11 6 25 14 OZO 1022,5 50 0,0
21.10.2017 14:00:00 5,5 0,9 11 6 20 11 O 1022,6 50 0,0
21.10.2017 13:00:00 4,9 1,2 13 7 22 12 OZO 1023,3 50 0,0
21.10.2017 12:00:00 3,6 1,8 7 4 11 6 ONO 1023,9 50 0,0
21.10.2017 11:00:00 3,0 1,8 4 2 11 6 ONO 1024,1 50 0,0
21.10.2017 10:00:00 1,9 1,8 6 3 11 6 ONO 1024,1 41 0,0
21.10.2017 09:00:00 -0,2 -0,3 1 1 4 2 WZW 1024,0 45 0,0
21.10.2017 08:00:00 -0,9 -0,9 3 2 5 3 WNW 1023,9 40 0,0
21.10.2017 07:00:00 -1,4 -1,5 2 1 5 3 Z 1023,9 22 0,0
21.10.2017 06:00:00 -1,3 -1,4 2 1 5 3 WZW 1023,7 19 0,0
21.10.2017 05:00:00 -1,0 -1,1 1 1 5 3 ZZW 1023,8 30 0,0
21.10.2017 04:00:00 0,4 0,1 1 1 6 4 Z 1023,8 44 0,0
21.10.2017 03:00:00 0,5 0,4 2 1 6 3 ZZW 1024,0 48 0,0
21.10.2017 02:00:00 -0,4 -0,7 3 1 6 3 ZO 1024,1 38 0,0
21.10.2017 01:00:00 0,6 0,2 2 1 7 4 ZW 1023,8 50 0,0
21.10.2017 00:00:00 2,0 1,6 3 2 9 5 Z 1023,7 50 0,0
20.10.2017 23:00:00 2,6 2,0 6 3 10 5 ONO 1023,3 50 0,0
20.10.2017 22:00:00 0,5 0,2 5 3 8 4 ZZO 1023,4 17 0,0
20.10.2017 21:00:00 1,9 1,3 1 1 14 7 ONO 1023,2 15 0,0
20.10.2017 20:00:00 3,1 2,4 10 5 16 9 NO 1022,8 26 0,0
20.10.2017 19:00:00 3,2 2,5 11 6 18 10 NO 1022,6 50 0,0
20.10.2017 18:00:00 3,3 2,4 7 4 18 10 NO 1022,3 25 0,0
20.10.2017 17:00:00 3,6 2,7 12 6 20 11 NO 1021,8 50 0,0
20.10.2017 16:00:00 4,2 2,9 5 3 14 8 NO 1021,8 50 0,0
20.10.2017 15:00:00 4,4 3,1 4 2 9 5 N 1021,6 50 0,0
20.10.2017 14:00:00 3,7 2,8 5 3 8 5 NNW 1021,9 50 0,0
20.10.2017 13:00:00 3,1 2,5 4 2 7 4 NNO 1022,0 50 0,0
20.10.2017 12:00:00 1,9 1,6 2 1 6 3 ONO 1022,3 43 0,0
20.10.2017 11:00:00 0,7 0,4 2 1 7 4 OZO 1022,3 44 0,0
20.10.2017 10:00:00 -0,4 -0,5 5 3 8 4 ZZO 1022,1 34 0,0
20.10.2017 09:00:00 -1,3 -1,6 3 1 3 2 WNW 1021,8 40 0,0
20.10.2017 08:00:00 -1,8 -2,1 1 1 6 3 OZO 1021,7 50 0,0
20.10.2017 07:00:00 -2,3 -2,6 3 2 6 3 ZZO 1021,7 50 0,0
20.10.2017 06:00:00 -2,7 -3,0 4 2 5 3 NW 1021,8 50 0,0
20.10.2017 05:00:00 -3,4 -3,7 1 1 5 3 ZZW 1021,9 1,0 0,0
20.10.2017 04:00:00 -4,3 -4,6 2 1 5 3 Z 1022,4 0,6 0,0
20.10.2017 03:00:00 -4,8 -5,1 1 1 5 3 NNW 1022,5 0,3 0,0
20.10.2017 02:00:00 -4,6 -5,0 2 1 3 2 ZW 1022,4 50 0,0
20.10.2017 01:00:00 -3,9 -4,2 2 1 5 3 W 1022,4 50 0,0
20.10.2017 00:00:00 -3,5 -3,8 1 1 3 2 ZW 1022,5 27 0,0
19.10.2017 23:00:00 -3,0 -3,3 1 1 3 2 Z 1022,5 43 0,0
19.10.2017 22:00:00 -2,8 -3,1 2 1 4 2 ZZW 1022,1 47 0,0
19.10.2017 21:00:00 -2,4 -2,7 1 1 3 2 W 1022,0 23 0,0
19.10.2017 20:00:00 -2,0 -2,3 1 1 4 2 W 1022,2 50 0,0
19.10.2017 19:00:00 -1,1 -1,5 3 2 6 3 ZZO 1022,1 50 0,0
19.10.2017 18:00:00 0,2 -0,7 3 2 5 3 ZZW 1021,7 44 0,0
19.10.2017 17:00:00 2,2 -0,1 4 2 9 5 Z 1021,4 38 0,0
19.10.2017 16:00:00 7,6 1,2 7 4 12 6 ZZO 1020,5 50 0,0
19.10.2017 15:00:00 7,8 1,6 6 3 11 6 ZZO 1020,7 50 0,0
19.10.2017 14:00:00 7,4 1,3 4 2 8 4 ZZO 1021,2 50 0,0
19.10.2017 13:00:00 5,9 1,4 2 1 6 3 Z 1021,6 43 0,0
19.10.2017 12:00:00 3,1 0,8 4 2 6 4 NW 1022,1 50 0,0
19.10.2017 11:00:00 0,2 -0,8 3 1 5 3 N 1022,5 50 0,0
19.10.2017 10:00:00 -1,6 -2,2 2 1 6 3 NNW 1022,5 50 0,0
19.10.2017 09:00:00 -3,8 -4,1 1 1 5 3 WNW 1022,3 50 0,0
19.10.2017 08:00:00 -5,3 -5,8 3 1 5 3 WNW 1021,9 50 0,0
19.10.2017 07:00:00 -4,8 -5,2 4 2 7 4 Z 1021,5 50 0,0
19.10.2017 06:00:00 -4,7 -5,1 3 2 5 3 Z 1021,5 50 0,0
19.10.2017 05:00:00 -4,3 -4,6 3 2 5 3 Z 1021,2 50 0,0
19.10.2017 04:00:00 -4,2 -4,6 2 1 8 4 ZW 1021,2 50 0,0
19.10.2017 03:00:00 -3,6 -3,9 4 2 7 4 Z 1020,8 50 0,0
19.10.2017 02:00:00 -3,2 -3,6 3 1 5 3 NO 1020,5 50 0,0
19.10.2017 01:00:00 -3,0 -3,3 2 1 6 3 Z 1020,1 50 0,0
19.10.2017 00:00:00 -2,3 -2,4 4 2 7 4 ZZO 1019,7 45 0,0
18.10.2017 23:00:00 -2,0 -2,3 3 2 9 5 ZW 1019,5 42 0,0
18.10.2017 22:00:00 -1,6 -1,9 2 1 6 3 NW 1019,2 50 0,0
18.10.2017 21:00:00 -0,7 -1,1 2 1 10 5 ZW 1018,6 31 0,0
18.10.2017 20:00:00 0,1 -0,6 3 2 8 5 Z 1017,8 50 0,0
18.10.2017 19:00:00 2,1 0,9 2 1 9 5 N 1017,1 50 0,0
18.10.2017 18:00:00 6,5 2,0 9 5 17 9 NW 1015,6 50 0,0
18.10.2017 17:00:00 7,6 2,1 7 4 21 11 W 1015,0 50 0,0
18.10.2017 16:00:00 8,8 1,9 13 7 26 14 WNW 1014,4 50 0,0
18.10.2017 15:00:00 9,0 1,9 12 7 24 13 W 1014,0 50 0,0
18.10.2017 14:00:00 8,6 2,0 13 7 24 13 WNW 1013,7 50 0,0
18.10.2017 13:00:00 7,7 2,0 11 6 26 14 WNW 1013,5 50 0,0
18.10.2017 12:00:00 6,9 1,6 15 8 26 14 WNW 1013,1 50 0,0
18.10.2017 11:00:00 5,7 1,6 10 5 21 12 WNW 1012,9 50 0,0
18.10.2017 10:00:00 4,1 1,1 10 5 22 12 NW 1012,4 50 0,0
18.10.2017 09:00:00 -0,7 -0,7 2 1 8 4 ZO 1012,1 50 0,0
18.10.2017 08:00:00 -1,2 -1,3 5 3 7 4 ZZO 1011,5 3,3 0,0
18.10.2017 07:00:00 -1,4 -1,7 4 2 7 4 ZZO 1010,7 1,1 0,0
18.10.2017 06:00:00 1,0 0,0 4 2 14 7 WNW 1009,9 50 0,0
18.10.2017 05:00:00 1,2 0,3 6 4 14 8 NW 1009,2 50 0,0
18.10.2017 04:00:00 1,6 0,7 6 3 10 6 NNW 1008,4 50 0,0
18.10.2017 03:00:00 3,8 1,8 8 5 17 9 NW 1007,3 50 0,0
18.10.2017 02:00:00 3,8 2,0 11 6 27 14 NNW 1005,9 50 0,0
18.10.2017 01:00:00 5,0 3,5 10 5 23 12 NNW 1004,4 50 0,0
18.10.2017 00:00:00 5,6 4,7 9 5 21 11 NNW 1003,2 49 0,4
17.10.2017 23:00:00 6,7 5,2 13 7 33 18 N 1002,3 17 1,5
17.10.2017 22:00:00 9,6 8,5 6 3 22 12 ZW 1000,4 28 0,3
17.10.2017 21:00:00 9,9 8,5 9 5 29 16 ZW 1000,3 24 0,0
17.10.2017 20:00:00 9,9 8,5 10 5 24 13 ZW 1000,2 29 0,6
17.10.2017 19:00:00 10,1 8,5 8 4 24 13 ZW 1000,6 26 0,2
17.10.2017 18:00:00 10,1 8,4 8 5 23 12 ZZW 1000,7 17 0,0
17.10.2017 17:00:00 10,1 7,9 7 4 26 14 ZW 1001,2 49 0,0
17.10.2017 16:00:00 10,3 8,1 9 5 24 13 ZW 1002,1 42 0,0
17.10.2017 15:00:00 10,3 8,4 10 5 23 13 ZW 1002,3 31 0,0
17.10.2017 14:00:00 9,8 8,6 10 6 32 17 WZW 1002,8 14 0,0
17.10.2017 13:00:00 9,7 8,3 14 7 35 19 ZW 1003,2 23 0,0
17.10.2017 12:00:00 6,8 6,5 6 3 16 8 ZZO 1003,7 5 0,0
17.10.2017 11:00:00 6,1 5,8 5 3 11 6 ZZO 1004,7 11 0,3
17.10.2017 10:00:00 5,7 5,4 5 3 13 7 ZO 1005,9 8 0,5
17.10.2017 09:00:00 5,4 5,1 6 4 12 6 OZO 1007,2 6 0,2
17.10.2017 08:00:00 5,1 4,8 4 2 10 6 OZO 1008,9 3,9 0,2
17.10.2017 07:00:00 5,1 4,8 7 4 16 9 Z 1010,1 50 0,0
17.10.2017 06:00:00 4,9 4,5 7 4 12 6 Z 1011,8 50 0,0
17.10.2017 05:00:00 4,9 4,5 5 3 13 7 ZZO 1012,5 50 0,1
17.10.2017 04:00:00 5,1 4,7 7 4 10 5 ZO 1013,9 9 1,3
17.10.2017 03:00:00 5,6 4,6 5 3 20 11 W 1015,9 10 4,8
17.10.2017 02:00:00 4,5 4,1 2 1 10 5 ZZO 1016,3 6 1,3
17.10.2017 01:00:00 4,0 3,4 5 3 8 5 NNW 1015,6 50 0,1
17.10.2017 00:00:00 3,3 2,9 1 1 3 2 NO 1014,9 50 0,0
16.10.2017 23:00:00 3,1 2,5 2 1 5 3 ZW 1015,5 50 0,0
16.10.2017 22:00:00 4,0 3,3 3 2 4 2 ZW 1015,4 50 0,0
16.10.2017 21:00:00 6,4 4,7 3 1 3 2 Z 1014,7 50 0,0
16.10.2017 20:00:00 7,4 5,4 1 0 5 3 Z 1014,6 50 0,0
16.10.2017 19:00:00 8,2 5,7 2 1 5 3 WZW 1014,0 50 0,0
16.10.2017 18:00:00 9,9 5,5 1 1 6 3 Z 1013,6 50 0,0
16.10.2017 17:00:00 12,1 3,1 6 3 11 6 N 1012,9 50 0,0
16.10.2017 16:00:00 12,7 2,8 7 4 15 8 WNW 1011,5 50 0,0
16.10.2017 15:00:00 14,4 3,8 9 5 22 12 W 1011,1 50 0,0
16.10.2017 14:00:00 14,2 4,5 9 5 17 9 W 1010,6 49 0,0
16.10.2017 13:00:00 13,6 4,5 11 6 24 13 WNW 1010,5 50 0,0
16.10.2017 12:00:00 13,7 6,1 13 7 26 14 W 1009,9 47 0,0
16.10.2017 11:00:00 13,1 7,3 10 6 28 15 W 1008,7 47 0,0
16.10.2017 10:00:00 12,3 8,0 12 6 30 16 WZW 1007,7 47 0,0
16.10.2017 09:00:00 11,9 8,4 11 6 35 19 ZW 1007,0 50 0,0
16.10.2017 08:00:00 11,7 8,5 15 8 41 22 ZW 1005,4 50 0,0
16.10.2017 07:00:00 12,1 8,9 18 10 45 24 ZW 1004,6 50 0,0
16.10.2017 06:00:00 12,5 9,5 16 9 44 24 ZW 1004,2 48 0,0

tt = temperatuur
td = dauwpunt
ff = windsnelheid
fx = windstoten
dd = windrichting
ppp = luchtdruk
vv = zicht
rr = neerslag

Weerstations in de omgeving